User: anonymous   Login
Location: Unspecified
(0.0000°N, 0.0000°E)
Time: 11:20:42
(UTC+00:00)
Language:

YUBILEINY - Orbit

View from above orbital plane
View from above orbital plane
View from above satellite
View from above satellite

Ground track
Ground track

The orbit data is extracted from the following two-line orbital elements,

1 32953U 08025A   18267.59836405 +.00000042 +00000-0 +23145-3 0  9995
2 32953 082.5020 310.8592 0018724 356.6780 003.4173 12.43085650469120
Epoch (UTC): 24 September 2018 14:21:38
Eccentricity: 0.0018724
inclination: 82.5020°
perigee height: 1479 km
apogee height: 1508 km
right ascension of ascending node: 310.8592°
argument of perigee: 356.6780°
revolutions per day: 12.43085650
mean anomaly at epoch: 3.4173°
orbit number at epoch: 46912

The dashed part of the orbit path shows where the satellite is in the earth's shadow,  

DLR